PROBA-1 1 26958U 01049B 25351.60997578 .00002982 00000+0 19948-3 0 9995 2 26958 97.9585 348.9338 0056632 17.9182 342.4023 15.06483010316278 CUTE-1 (CO-55) 1 27844U 03031E 25351.57814299 .00000324 00000+0 15972-3 0 9998 2 27844 98.6762 357.4188 0009534 359.6280 0.4890 14.24183443165822 CUBESAT XI-IV (CO-57) 1 27848U 03031J 25351.47671991 .00000278 00000+0 14155-3 0 9991 2 27848 98.6791 357.1768 0009765 17.6835 342.4682 14.23490862165522 APRIZESAT 4 1 35684U 09041D 25351.50814829 .00000895 00000+0 11408-3 0 9991 2 35684 98.1638 58.0782 0043391 189.0749 170.9685 14.83503770884421 APRIZESAT 3 1 35686U 09041F 25351.28958896 .00001569 00000+0 14268-3 0 9997 2 35686 98.1793 131.1946 0061499 308.5212 51.0503 14.95440539889184 PROBA-2 1 36037U 09059B 25351.52731282 .00000283 00000+0 76577-4 0 9996 2 36037 98.2372 172.4383 0014182 119.3931 240.8684 14.54715384855117 APRIZESAT 5 1 37792U 11044E 25351.58360068 .00000982 00000+0 13282-3 0 9997 2 37792 98.2364 274.6558 0051605 226.5398 133.1515 14.80585751771919 APRIZESAT 6 1 37793U 11044F 25351.29813503 .00000917 00000+0 13763-3 0 9995 2 37793 98.2461 253.0196 0042447 309.0973 167.0294 14.76546357770303 PROBA-V 1 39159U 13021A 25351.50053724 .00000075 00000+0 51112-4 0 9991 2 39159 98.3391 334.2834 0003308 317.7281 42.3643 14.23548956655265 APRIZESAT 7 1 39416U 13066A 25351.58791045 .00001184 00000+0 12412-3 0 9990 2 39416 97.7478 302.7623 0037879 93.0669 267.4884 14.90916766654167 APRIZESAT 8 1 39425U 13066K 25351.44027004 .00000969 00000+0 11198-3 0 9992 2 39425 97.8009 296.7555 0046765 162.1273 198.1601 14.87124526652657 BUGSAT-1 (TITA) 1 40014U 14033E 25351.61454749 .00005510 00000+0 30972-3 0 9990 2 40014 98.0564 68.7874 0030582 80.5563 279.9122 15.13352472628357 SAUDISAT 4 1 40016U 14033G 25351.64889746 .00000684 00000+0 97652-4 0 9990 2 40016 97.7301 139.4041 0043942 305.3563 54.3546 14.79178539619231 APRIZESAT 9 1 40018U 14033J 25351.62787973 .00000562 00000+0 90263-4 0 9995 2 40018 97.8794 124.6096 0067765 64.6402 296.1804 14.73894729616816 APRIZESAT 10 1 40019U 14033K 25351.61487331 .00000662 00000+0 11177-3 0 9997 2 40019 97.9412 117.9500 0080157 133.0343 227.7615 14.70605530615563 TECHDEMOSAT-1 (TDS-1) 1 40076U 14037H 25351.51766926 .00007484 00000+0 47033-3 0 9992 2 40076 98.3666 321.4020 0007554 145.7337 214.4379 15.09560964620788 TECHNOSAT 1 42829U 17042E 25351.45394279 .00003121 00000+0 23274-3 0 9995 2 42829 97.4049 151.4570 0018085 358.9124 1.2060 15.03451500459389 FLYING LAPTOP 1 42831U 17042G 25351.60528454 .00003447 00000+0 28149-3 0 9996 2 42831 97.4236 150.0031 0014733 33.5812 326.6343 14.99945078459226 HAWK-A 1 43765U 18099H 25351.12584086 .00006798 00000+0 29845-3 0 9992 2 43765 97.4211 40.8146 0036547 203.0865 156.8731 15.21657027385387 HAWK-B 1 43794U 18099AN 25351.60138965 .00005830 00000+0 26915-3 0 9999 2 43794 97.4260 41.0480 0033035 217.8877 142.0034 15.20112955385425 HAWK-C 1 43799U 18099AT 25351.61515516 .00008041 00000+0 32054-3 0 9994 2 43799 97.4188 41.3858 0043089 205.0526 154.8622 15.24600770386214 SALSAT 1 46495U 20068K 25351.51398153 .00007457 00000+0 28925-3 0 9996 2 46495 97.8780 339.0442 0009285 210.0170 150.0536 15.26405168287611 HAWK-2C 1 47502U 21006CT 25351.60167410 .00006516 00000+0 21484-3 0 9997 2 47502 97.2558 34.6038 0008682 124.9498 235.2560 15.31746630271673 HAWK-2A 1 47505U 21006CW 25351.60476484 .00007621 00000+0 25078-3 0 9995 2 47505 97.2604 35.1787 0008181 127.1758 233.0232 15.31756148271670 HAWK-2B 1 47508U 21006CZ 25351.60202020 .00006772 00000+0 22314-3 0 9997 2 47508 97.2475 33.8149 0008936 125.8058 234.4016 15.31747173271675 HAWK-3B 1 48931U 21059BE 25351.48437075 .00023883 00000+0 35251-3 0 9998 2 48931 97.6689 168.0016 0005192 279.5705 80.4961 15.55355187249486 HAWK-3C 1 48948U 21059BX 25351.48412902 .00024229 00000+0 35751-3 0 9998 2 48948 97.6853 173.3219 0005699 281.4560 78.6053 15.55357308249482 HAWK-3A 1 48957U 21059CG 25351.48396651 .00024112 00000+0 35583-3 0 9994 2 48957 97.6780 170.6896 0005379 279.9450 80.1196 15.55356836249488 HAWK-5C 1 52754U 22057Y 25351.37140456 .00014208 00000+0 31579-3 0 9997 2 52754 97.6370 135.6470 0005846 17.9434 342.2018 15.43776094198222 HAWK-5B 1 52756U 22057AA 25351.37123367 .00013755 00000+0 30582-3 0 9990 2 52756 97.6353 134.0026 0005841 14.0732 346.0677 15.43774568198226 HAWK-5A 1 52757U 22057AB 25351.37098938 .00014646 00000+0 32554-3 0 9997 2 52757 97.6363 134.8263 0006071 15.2756 344.8674 15.43765714198220 HAWK-6B 1 55324U 23011A 25351.35220569 .00005163 00000+0 23846-3 0 9994 2 55324 40.5156 330.9187 0003601 225.4788 134.5727 15.20703699160131 HAWK-6C 1 55326U 23011C 25351.28592117 .00005203 00000+0 24024-3 0 9993 2 55326 40.4847 328.3922 0003161 217.1981 142.8608 15.20701545160139 HAWK-6A 1 55327U 23011D 25351.35161238 .00005230 00000+0 24145-3 0 9992 2 55327 40.5004 329.5052 0002947 222.1111 137.9472 15.20702348160142 HAWK-7A 1 56191U 23054P 25350.25320881 .00005423 00000+0 19417-3 0 9998 2 56191 97.2860 236.9629 0008160 350.1928 9.9152 15.29142879149105 HAWK-7B 1 56193U 23054R 25351.62733262 .00002487 00000+0 90543-4 0 9990 2 56193 97.2904 236.5027 0009406 6.0380 354.0972 15.29107478149310 HAWK-7C 1 56200U 23054Y 25350.64549554 .00005605 00000+0 20068-3 0 9998 2 56200 97.2878 236.3589 0008710 2.2229 357.9049 15.29129238149165